Temp
-16 -16 -16 -16 -17 -17 -17 -16 -17 -17 -17 -17 -18 -18 -18 -17 -17 -16 -16 -15 -15 -15 -15 -15 -14 -14 -14 -14 -14 -13 -12 -11 -10 -9 -8 -8 -7 -5 -4 -4 -3 -3 -2 -2 -1 -1 0 1 1 2 2 3 4 5 6 6 6 7 7 7 8 8 8 8 8 8 8 9 9 9 10 10 10 10
-16 -17 -16 -17 -17 -17 -17 -17 -18 -18 -18 -18 -18 -18 -18 -17 -17 -17 -16 -16 -16 -16 -16 -15 -15 -15 -14 -14 -14 -13 -12 -11 -10 -10 -9 -8 -7 -6 -4 -3 -3 -3 -2 -2 -1 -1 -0 1 1 1 2 2 3 4 5 6 6 7 7 7 7 8 8 8 8 8 8 8 9 9 9 10 10 10
-16 -16 -16 -16 -17 -17 -17 -17 -18 -18 -18 -18 -18 -18 -18 -18 -17 -17 -17 -17 -16 -16 -16 -16 -15 -15 -15 -15 -14 -13 -12 -11 -10 -10 -9 -8 -7 -6 -5 -3 -3 -2 -2 -2 -1 -1 -0 1 1 2 2 2 3 4 5 6 6 6 7 7 7 8 7 7 8 8 8 8 8 9 9 9 10 10
-16 -16 -16 -16 -17 -17 -17 -18 -18 -18 -18 -18 -18 -18 -18 -18 -18 -17 -17 -17 -16 -16 -16 -16 -15 -15 -15 -14 -14 -13 -12 -11 -10 -9 -9 -8 -8 -6 -5 -3 -3 -2 -2 -2 -1 -1 -0 1 1 2 2 2 3 4 4 5 6 6 7 7 7 7 7 7 7 8 8 8 8 9 9 9 9 10
-16 -16 -16 -17 -17 -17 -18 -18 -18 -19 -19 -19 -19 -18 -18 -18 -18 -17 -17 -17 -16 -16 -16 -16 -16 -15 -15 -15 -14 -14 -13 -11 -10 -9 -9 -9 -8 -6 -5 -4 -3 -2 -2 -2 -2 -1 -0 1 1 2 2 2 3 3 4 5 6 6 7 7 7 7 7 7 8 8 8 8 8 8 9 9 9 9
-15 -15 -16 -17 -17 -18 -18 -18 -19 -19 -19 -19 -18 -18 -18 -18 -18 -17 -17 -17 -16 -16 -16 -16 -15 -15 -15 -15 -14 -14 -13 -12 -11 -10 -9 -9 -8 -6 -5 -4 -3 -2 -2 -2 -1 -1 -0 0 1 1 2 2 3 3 4 5 5 6 6 6 7 7 7 7 8 8 8 8 8 8 8 9 9 9
-15 -15 -16 -16 -17 -17 -18 -18 -19 -19 -18 -18 -18 -18 -18 -18 -17 -17 -17 -16 -16 -16 -16 -15 -15 -15 -15 -15 -14 -14 -14 -12 -11 -10 -9 -8 -7 -6 -5 -4 -3 -2 -2 -2 -1 -1 -1 -0 0 1 2 2 3 3 4 5 5 5 5 6 6 6 7 7 7 8 8 8 8 8 8 9 9 9
-15 -15 -16 -16 -17 -17 -18 -18 -19 -18 -18 -18 -18 -17 -17 -17 -17 -16 -16 -16 -16 -16 -15 -15 -15 -15 -15 -15 -14 -14 -14 -12 -11 -11 -9 -8 -7 -6 -5 -4 -3 -2 -2 -2 -1 -1 -1 -0 -0 1 1 2 2 3 4 4 4 5 5 5 6 6 6 7 7 7 8 8 8 8 8 8 9 9
-15 -16 -16 -16 -17 -17 -18 -18 -18 -18 -18 -18 -17 -17 -17 -17 -16 -16 -16 -16 -16 -16 -16 -16 -15 -15 -15 -15 -14 -14 -14 -13 -12 -11 -9 -8 -6 -5 -5 -4 -3 -2 -2 -2 -1 -1 -1 -1 -0 0 1 2 2 3 3 4 4 4 4 5 5 5 6 6 7 7 7 8 8 8 8 7 8 9
-15 -16 -16 -16 -17 -18 -18 -18 -18 -18 -18 -18 -17 -17 -17 -16 -16 -16 -16 -17 -16 -16 -16 -16 -15 -15 -15 -15 -14 -14 -14 -13 -12 -11 -9 -7 -6 -5 -4 -4 -3 -2 -2 -2 -1 -1 -1 -1 -0 0 1 1 2 3 3 3 3 4 4 4 4 5 5 6 6 7 7 8 8 8 8 7 8 9
-15 -15 -15 -16 -17 -17 -18 -19 -19 -18 -18 -17 -17 -17 -17 -16 -17 -17 -17 -17 -16 -16 -16 -16 -16 -15 -15 -15 -14 -14 -13 -13 -12 -11 -9 -7 -5 -5 -4 -3 -3 -2 -1 -1 -1 -1 -1 -1 -0 0 1 1 2 2 3 3 3 3 3 3 3 4 4 5 6 6 7 7 8 8 8 7 7 8
-15 -15 -15 -16 -17 -17 -18 -18 -18 -17 -17 -17 -17 -17 -17 -17 -17 -17 -17 -17 -17 -16 -16 -16 -16 -16 -15 -15 -15 -14 -13 -13 -12 -10 -9 -7 -5 -4 -4 -3 -2 -2 -1 -1 -1 -1 -1 -1 -0 0 1 1 2 2 3 3 3 3 3 3 3 3 4 4 5 6 6 7 7 8 7 7 7 8
-15 -15 -15 -16 -16 -17 -18 -18 -17 -17 -17 -17 -17 -17 -17 -17 -17 -17 -17 -17 -17 -17 -17 -16 -16 -16 -16 -15 -15 -14 -14 -13 -13 -11 -9 -8 -5 -4 -4 -3 -2 -2 -1 -1 -1 -1 -1 -1 -0 0 1 1 2 2 2 3 2 2 3 2 3 3 3 4 4 5 6 6 7 7 7 7 7 8
-14 -15 -15 -16 -16 -17 -17 -17 -17 -17 -17 -17 -17 -17 -18 -18 -18 -18 -18 -17 -17 -17 -17 -17 -17 -17 -16 -16 -16 -15 -13 -13 -13 -11 -10 -8 -6 -4 -4 -3 -3 -2 -2 -2 -1 -1 -1 -1 -0 0 1 1 2 2 2 2 2 2 2 2 2 3 3 3 4 4 5 6 6 7 7 8 8 8
-14 -15 -15 -15 -16 -16 -16 -17 -17 -17 -17 -18 -18 -18 -18 -18 -18 -18 -18 -18 -18 -18 -18 -18 -18 -17 -17 -16 -16 -15 -14 -14 -14 -11 -9 -8 -6 -4 -4 -3 -3 -2 -2 -2 -1 -1 -1 -1 -0 0 1 1 2 2 2 2 2 2 2 2 2 2 3 3 3 4 5 5 6 6 7 8 8 8
-15 -15 -15 -15 -15 -15 -16 -17 -18 -17 -17 -18 -18 -18 -18 -18 -18 -18 -18 -18 -18 -18 -18 -18 -17 -17 -17 -17 -16 -15 -14 -14 -13 -10 -9 -7 -5 -4 -4 -3 -2 -2 -2 -2 -1 -1 -1 -1 -0 0 1 1 2 2 2 2 2 2 2 2 2 2 2 3 3 4 4 5 6 6 7 7 8 8
-15 -15 -15 -15 -15 -15 -15 -17 -18 -17 -17 -17 -17 -17 -17 -17 -18 -18 -18 -18 -18 -18 -18 -17 -16 -16 -17 -17 -16 -15 -15 -15 -13 -11 -8 -7 -5 -4 -4 -3 -3 -2 -2 -2 -1 -1 -1 -1 -1 0 1 1 1 2 1 1 1 2 2 2 2 2 2 2 3 3 4 5 5 6 6 7 7 8
-15 -15 -15 -15 -15 -14 -15 -17 -18 -17 -17 -18 -17 -16 -17 -18 -17 -17 -17 -16 -16 -16 -16 -16 -16 -16 -16 -16 -16 -15 -15 -15 -14 -11 -8 -6 -5 -4 -4 -3 -3 -2 -2 -2 -1 -1 -1 -1 -1 -0 1 1 1 1 1 1 1 1 2 2 2 2 2 2 2 3 4 4 5 5 6 6 6 7
-15 -16 -15 -15 -15 -14 -15 -17 -18 -17 -18 -18 -16 -16 -17 -18 -17 -17 -17 -16 -15 -15 -15 -15 -15 -15 -15 -15 -15 -14 -13 -13 -13 -10 -7 -5 -5 -4 -4 -4 -3 -3 -2 -2 -2 -2 -1 -1 -1 -0 0 0 1 1 1 1 1 1 1 2 2 2 2 2 2 2 3 4 4 5 5 6 6 6
-16 -16 -16 -16 -15 -14 -16 -18 -18 -18 -18 -17 -16 -17 -18 -17 -17 -17 -16 -16 -15 -14 -14 -14 -14 -14 -14 -14 -13 -12 -11 -10 -10 -8 -7 -5 -5 -4 -4 -4 -3 -3 -2 -2 -2 -2 -2 -1 -1 -0 0 0 0 0 0 0 1 1 1 2 2 2 2 2 2 2 2 3 3 4 5 5 5 6
-16 -16 -16 -16 -15 -15 -17 -18 -18 -18 -18 -16 -16 -17 -18 -17 -16 -16 -15 -15 -14 -14 -14 -13 -13 -13 -13 -12 -12 -11 -10 -9 -8 -7 -6 -5 -4 -4 -4 -3 -3 -3 -3 -2 -2 -2 -2 -2 -1 -1 -0 -0 -0 -0 -0 0 1 1 1 1 2 2 2 1 1 2 2 2 3 3 4 4 5 5
-15 -15 -16 -16 -15 -15 -17 -17 -17 -18 -17 -16 -16 -17 -17 -17 -17 -16 -15 -13 -13 -13 -13 -12 -12 -11 -11 -11 -11 -11 -10 -9 -8 -7 -6 -6 -5 -4 -4 -4 -3 -3 -3 -3 -2 -3 -2 -2 -1 -1 -1 -1 -1 -0 -0 0 0 1 1 1 2 2 2 1 1 1 2 2 2 2 3 3 4 5
-15 -15 -15 -16 -15 -16 -17 -16 -16 -16 -16 -15 -16 -17 -17 -17 -18 -17 -16 -14 -13 -12 -12 -11 -11 -10 -9 -9 -9 -10 -10 -9 -8 -7 -7 -6 -5 -4 -4 -4 -3 -3 -4 -3 -3 -3 -3 -2 -2 -1 -1 -1 -1 -1 -0 -0 0 1 1 1 1 2 2 1 1 1 1 2 2 2 2 2 3 4
-15 -15 -15 -16 -15 -15 -16 -16 -16 -16 -16 -15 -15 -16 -17 -18 -18 -17 -15 -15 -14 -13 -12 -11 -10 -9 -8 -8 -8 -8 -9 -8 -8 -7 -7 -6 -6 -5 -4 -4 -4 -4 -4 -4 -3 -3 -3 -2 -2 -2 -1 -1 -1 -0 -0 -0 0 0 1 1 1 1 1 1 1 1 1 1 2 2 2 2 3 3
-16 -15 -16 -16 -16 -16 -16 -16 -15 -15 -15 -15 -15 -15 -16 -17 -17 -15 -14 -14 -14 -13 -12 -11 -10 -9 -8 -7 -7 -7 -7 -8 -7 -7 -7 -6 -6 -6 -5 -5 -4 -4 -4 -4 -3 -3 -3 -2 -2 -2 -2 -1 -1 -0 -0 -0 -0 0 0 1 1 1 1 1 1 1 1 1 1 1 1 2 3 3
-16 -16 -16 -16 -16 -16 -16 -16 -15 -15 -15 -15 -15 -15 -15 -15 -15 -14 -14 -13 -13 -12 -12 -11 -10 -9 -8 -7 -7 -7 -7 -7 -7 -7 -7 -7 -7 -6 -6 -5 -5 -5 -4 -4 -3 -3 -3 -2 -2 -2 -2 -2 -1 -1 -0 -0 -0 -0 0 0 1 1 1 1 1 1 1 1 1 1 1 1 2 3
-16 -16 -17 -17 -17 -16 -16 -16 -16 -15 -15 -15 -15 -15 -14 -14 -13 -13 -13 -13 -12 -12 -11 -11 -10 -10 -9 -8 -8 -8 -8 -7 -7 -7 -7 -7 -7 -7 -6 -6 -5 -5 -5 -4 -3 -3 -3 -3 -2 -2 -2 -2 -1 -1 -1 -1 -1 -1 -1 -0 0 0 0 1 1 1 1 1 1 1 1 1 2 3
-17 -17 -17 -17 -17 -16 -16 -16 -16 -15 -15 -15 -15 -14 -14 -13 -13 -13 -13 -13 -12 -12 -11 -11 -11 -11 -10 -10 -10 -10 -9 -8 -8 -7 -7 -7 -7 -6 -6 -6 -5 -5 -5 -4 -3 -3 -3 -3 -3 -2 -2 -2 -1 -1 -1 -1 -1 -1 -1 -1 -1 -0 -0 0 0 0 0 0 0 0 0 1 1 2
-17 -18 -18 -17 -17 -16 -16 -16 -15 -15 -15 -15 -14 -14 -14 -13 -13 -13 -13 -13 -13 -12 -12 -12 -12 -12 -12 -12 -11 -11 -10 -9 -8 -7 -7 -7 -6 -6 -6 -6 -5 -5 -4 -4 -4 -4 -3 -3 -3 -3 -3 -2 -2 -1 -1 -1 -1 -1 -1 -1 -1 -1 -1 -0 -0 -0 -0 -0 -0 -0 -0 0 1 1
-18 -18 -18 -17 -17 -16 -16 -16 -15 -15 -15 -15 -15 -14 -14 -14 -13 -13 -13 -13 -13 -13 -13 -13 -13 -13 -13 -13 -12 -11 -10 -9 -8 -8 -7 -6 -6 -6 -6 -5 -5 -5 -4 -4 -4 -4 -3 -3 -3 -3 -3 -2 -2 -2 -1 -1 -1 -1 -2 -2 -1 -1 -1 -1 -1 -0 -1 -1 -1 -1 -1 -0 0 1
-18 -18 -18 -17 -17 -16 -16 -16 -16 -16 -16 -15 -15 -15 -14 -14 -14 -14 -14 -14 -14 -14 -14 -14 -14 -13 -13 -13 -12 -12 -11 -10 -9 -9 -8 -7 -7 -6 -6 -5 -5 -5 -5 -4 -4 -4 -3 -3 -3 -3 -3 -3 -2 -2 -2 -1 -1 -1 -2 -2 -2 -1 -1 -1 -1 -1 -1 -1 -1 -1 -1 -1 -1 0
-18 -18 -17 -17 -17 -16 -16 -16 -16 -16 -16 -16 -16 -15 -15 -15 -15 -15 -15 -14 -14 -14 -14 -14 -14 -13 -13 -13 -13 -12 -12 -11 -11 -10 -9 -9 -8 -7 -6 -5 -5 -5 -5 -4 -4 -4 -4 -4 -3 -3 -3 -3 -3 -2 -2 -2 -2 -2 -2 -2 -2 -2 -2 -1 -1 -1 -1 -2 -2 -2 -1 -1 -1 -0
-18 -17 -17 -16 -16 -16 -16 -16 -16 -16 -16 -16 -16 -16 -16 -16 -15 -15 -15 -15 -15 -14 -14 -14 -14 -13 -13 -13 -13 -12 -12 -12 -12 -11 -10 -10 -9 -8 -7 -7 -7 -6 -6 -5 -5 -4 -4 -4 -4 -4 -4 -3 -3 -3 -3 -2 -2 -2 -2 -3 -3 -2 -2 -2 -2 -1 -2 -2 -2 -2 -2 -1 -1 -1
-18 -17 -16 -16 -16 -16 -16 -16 -16 -16 -16 -17 -17 -17 -17 -17 -16 -16 -16 -16 -16 -15 -15 -15 -14 -14 -13 -13 -13 -13 -12 -12 -12 -12 -11 -10 -9 -9 -8 -8 -8 -8 -7 -6 -5 -5 -4 -4 -4 -4 -4 -4 -3 -3 -3 -3 -3 -3 -3 -3 -3 -2 -2 -2 -2 -2 -2 -2 -2 -2 -2 -2 -1 -1
-17 -17 -17 -17 -17 -17 -17 -17 -17 -17 -17 -17 -17 -18 -18 -18 -17 -17 -17 -17 -16 -16 -16 -15 -15 -15 -14 -14 -13 -13 -13 -13 -12 -12 -11 -11 -10 -10 -10 -9 -9 -9 -8 -7 -7 -6 -5 -5 -4 -4 -4 -4 -4 -4 -4 -4 -4 -3 -3 -3 -3 -3 -2 -2 -3 -2 -2 -2 -2 -2 -2 -2 -1 -1
-17 -17 -17 -17 -17 -17 -17 -18 -18 -18 -18 -18 -18 -18 -18 -18 -18 -18 -18 -18 -17 -17 -16 -16 -16 -15 -15 -15 -14 -14 -13 -13 -12 -12 -12 -11 -11 -11 -11 -11 -10 -10 -9 -8 -8 -7 -6 -5 -5 -5 -4 -4 -4 -4 -5 -4 -4 -4 -4 -3 -3 -3 -3 -2 -2 -2 -2 -2 -2 -2 -2 -2 -1 -1
-17 -17 -17 -17 -17 -18 -18 -18 -18 -18 -18 -19 -18 -18 -19 -19 -19 -19 -18 -18 -18 -17 -17 -17 -16 -16 -16 -15 -15 -14 -14 -13 -13 -12 -12 -12 -12 -11 -11 -11 -11 -11 -10 -9 -9 -8 -7 -7 -6 -5 -5 -5 -5 -5 -5 -5 -4 -4 -4 -3 -3 -3 -3 -3 -3 -3 -2 -2 -2 -2 -2 -2 -1 -1
-17 -17 -17 -17 -17 -18 -18 -18 -18 -18 -18 -18 -18 -19 -19 -19 -19 -19 -18 -18 -18 -18 -18 -17 -17 -16 -16 -16 -15 -15 -15 -14 -13 -13 -13 -12 -12 -12 -12 -12 -12 -11 -11 -10 -9 -9 -8 -8 -7 -7 -6 -6 -6 -6 -5 -5 -5 -4 -4 -4 -3 -3 -3 -3 -3 -3 -3 -3 -2 -2 -2 -2 -2 -1
-16 -17 -17 -17 -17 -18 -18 -18 -18 -18 -18 -18 -18 -18 -18 -18 -18 -18 -18 -18 -18 -18 -18 -18 -17 -17 -17 -17 -16 -16 -15 -15 -14 -14 -14 -14 -13 -13 -13 -12 -12 -11 -11 -10 -9 -9 -9 -8 -8 -8 -8 -7 -7 -7 -6 -6 -5 -5 -4 -4 -4 -4 -3 -3 -3 -3 -3 -3 -3 -3 -2 -2 -2 -2
-16 -17 -17 -17 -17 -17 -18 -18 -18 -18 -18 -18 -18 -18 -18 -18 -18 -18 -18 -18 -18 -18 -18 -18 -18 -18 -17 -17 -17 -17 -16 -16 -16 -15 -15 -15 -14 -14 -13 -13 -13 -12 -12 -11 -10 -10 -10 -10 -10 -10 -9 -8 -8 -8 -7 -6 -5 -5 -4 -4 -4 -4 -4 -3 -3 -3 -3 -3 -3 -3 -3 -2 -2 -2
-16 -17 -17 -17 -17 -17 -17 -18 -18 -18 -18 -18 -18 -18 -18 -18 -18 -19 -19 -19 -19 -18 -18 -18 -18 -18 -18 -18 -17 -17 -17 -16 -16 -16 -16 -15 -15 -15 -14 -13 -13 -13 -12 -12 -12 -12 -12 -12 -11 -11 -10 -9 -8 -8 -7 -6 -6 -5 -5 -4 -4 -4 -4 -4 -3 -3 -3 -3 -3 -3 -3 -3 -2 -2
-16 -16 -16 -17 -17 -17 -17 -17 -17 -17 -17 -18 -18 -18 -18 -18 -18 -18 -18 -18 -18 -18 -18 -18 -18 -19 -18 -18 -18 -18 -17 -17 -17 -17 -16 -16 -15 -15 -15 -14 -14 -13 -14 -13 -13 -13 -13 -12 -12 -11 -10 -9 -8 -8 -7 -7 -7 -6 -5 -4 -4 -4 -4 -4 -4 -3 -3 -3 -3 -3 -3 -3 -3 -2
-16 -16 -16 -16 -16 -16 -16 -17 -17 -17 -17 -17 -17 -17 -17 -17 -18 -18 -18 -18 -18 -18 -18 -18 -18 -18 -19 -19 -19 -18 -18 -18 -17 -17 -17 -16 -16 -16 -15 -15 -15 -15 -14 -14 -14 -13 -13 -12 -11 -11 -10 -9 -8 -8 -8 -8 -7 -7 -6 -5 -5 -4 -4 -4 -4 -3 -3 -3 -3 -3 -3 -3 -3 -3
-16 -16 -16 -16 -16 -16 -16 -16 -16 -16 -17 -17 -17 -17 -17 -17 -17 -17 -17 -17 -17 -18 -18 -18 -18 -18 -18 -18 -19 -18 -18 -18 -18 -18 -17 -17 -17 -16 -16 -16 -16 -15 -14 -14 -13 -13 -12 -12 -12 -11 -10 -10 -9 -9 -8 -8 -8 -7 -7 -6 -5 -5 -4 -4 -4 -4 -4 -3 -4 -4 -3 -3 -3 -3
-16 -16 -16 -16 -16 -16 -16 -16 -16 -16 -16 -16 -17 -17 -17 -17 -17 -17 -17 -17 -17 -17 -17 -18 -18 -18 -18 -18 -18 -18 -18 -19 -19 -18 -18 -18 -17 -17 -17 -16 -16 -15 -15 -14 -13 -13 -13 -12 -12 -11 -11 -11 -11 -10 -10 -9 -9 -8 -8 -7 -6 -5 -5 -5 -5 -4 -4 -4 -4 -4 -4 -3 -3 -2
Height
1375 1373 1371 1368 1365 1362 1360 1357 1355 1352 1349 1347 1345 1343 1341 1338 1333 1329 1325 1319 1314 1312 1313 1310 1307 1306 1307 1305 1303 1302 1300 1299 1299 1297 1296 1295 1295 1296 1299 1300 1302 1304 1306 1308 1310 1312 1313 1316 1318 1320 1323 1325 1329 1332 1335 1338 1341 1344 1347 1351 1354 1357 1360 1363 1366 1368 1370 1373 1376 1379 1383 1388 1392 1396
1372 1370 1368 1365 1362 1359 1357 1354 1351 1348 1346 1344 1342 1340 1338 1337 1334 1330 1325 1318 1313 1310 1308 1307 1306 1303 1303 1302 1300 1297 1296 1295 1295 1294 1292 1291 1291 1291 1293 1294 1296 1298 1300 1302 1304 1306 1308 1311 1313 1316 1318 1321 1324 1327 1330 1333 1336 1339 1343 1347 1350 1353 1356 1359 1361 1364 1366 1369 1372 1375 1378 1382 1386 1390
1370 1367 1364 1361 1358 1356 1354 1351 1347 1345 1343 1341 1339 1337 1335 1334 1332 1330 1326 1317 1311 1310 1306 1303 1303 1302 1299 1298 1296 1293 1292 1291 1290 1289 1288 1287 1287 1287 1288 1289 1291 1293 1295 1297 1299 1301 1303 1305 1308 1311 1313 1316 1318 1322 1325 1328 1332 1335 1338 1342 1345 1349 1352 1355 1358 1360 1362 1365 1368 1371 1374 1377 1381 1385
1367 1364 1361 1358 1356 1354 1351 1347 1344 1342 1340 1338 1336 1334 1332 1330 1328 1327 1325 1317 1308 1307 1305 1300 1299 1299 1296 1293 1292 1289 1287 1287 1286 1285 1284 1283 1283 1283 1284 1285 1287 1289 1291 1292 1294 1296 1298 1300 1303 1306 1308 1310 1313 1317 1320 1323 1326 1330 1333 1337 1341 1344 1347 1351 1353 1356 1358 1361 1364 1367 1370 1373 1376 1379
1365 1361 1358 1355 1353 1351 1348 1344 1341 1339 1337 1334 1333 1331 1328 1327 1326 1323 1321 1316 1307 1301 1300 1299 1295 1294 1293 1289 1287 1286 1283 1282 1282 1281 1280 1279 1279 1279 1279 1281 1283 1285 1287 1288 1290 1292 1294 1296 1298 1301 1303 1306 1308 1312 1315 1318 1321 1325 1328 1332 1336 1339 1343 1346 1348 1351 1355 1357 1360 1362 1365 1368 1371 1374
1362 1358 1355 1352 1350 1348 1344 1341 1338 1336 1334 1331 1329 1328 1326 1323 1322 1320 1317 1313 1307 1298 1294 1295 1293 1290 1290 1286 1283 1283 1280 1278 1277 1276 1275 1275 1274 1275 1276 1277 1279 1281 1283 1284 1285 1288 1290 1292 1294 1297 1299 1301 1304 1307 1310 1313 1317 1320 1323 1326 1330 1334 1337 1341 1343 1346 1350 1353 1355 1358 1360 1363 1366 1369
1359 1356 1352 1350 1347 1344 1341 1338 1335 1333 1331 1329 1326 1324 1322 1320 1317 1316 1314 1310 1306 1298 1290 1290 1290 1287 1286 1283 1279 1279 1277 1274 1273 1271 1269 1270 1270 1271 1272 1273 1275 1277 1279 1280 1282 1284 1286 1289 1291 1293 1295 1298 1300 1303 1306 1309 1312 1315 1318 1321 1325 1328 1332 1335 1338 1341 1345 1348 1351 1353 1356 1358 1360 1363
1357 1353 1350 1347 1344 1341 1338 1335 1333 1330 1328 1326 1323 1320 1318 1317 1314 1312 1310 1306 1303 1297 1289 1286 1287 1284 1281 1278 1275 1274 1273 1270 1268 1266 1265 1265 1265 1267 1268 1269 1271 1273 1275 1277 1278 1280 1282 1285 1287 1289 1292 1294 1297 1300 1302 1305 1308 1311 1314 1317 1320 1323 1326 1329 1332 1336 1340 1343 1346 1349 1351 1353 1354 1357
1355 1352 1348 1345 1342 1338 1335 1332 1330 1328 1326 1323 1320 1318 1315 1313 1311 1308 1306 1304 1300 1296 1288 1283 1282 1281 1278 1274 1271 1271 1269 1266 1264 1262 1261 1261 1261 1263 1265 1266 1267 1270 1272 1273 1275 1277 1279 1281 1283 1286 1288 1291 1294 1296 1299 1302 1304 1307 1309 1312 1315 1318 1321 1324 1327 1330 1334 1338 1341 1344 1346 1348 1349 1350
1353 1350 1346 1343 1339 1336 1333 1330 1327 1325 1323 1320 1317 1315 1312 1310 1307 1304 1302 1299 1295 1292 1287 1282 1278 1277 1275 1272 1267 1266 1267 1264 1261 1258 1257 1257 1258 1259 1261 1262 1264 1267 1268 1270 1272 1274 1276 1278 1280 1282 1285 1288 1290 1293 1296 1298 1301 1303 1305 1308 1311 1314 1317 1319 1322 1325 1329 1333 1336 1339 1342 1344 1344 1344
1351 1348 1345 1341 1337 1334 1331 1328 1325 1323 1320 1318 1315 1312 1309 1306 1304 1300 1297 1294 1291 1288 1284 1280 1277 1273 1272 1269 1264 1262 1263 1261 1257 1256 1254 1253 1254 1256 1257 1259 1261 1263 1265 1267 1268 1270 1273 1275 1277 1280 1282 1285 1287 1290 1292 1295 1297 1299 1302 1305 1307 1310 1312 1315 1317 1320 1324 1327 1331 1334 1338 1339 1339 1338
1349 1346 1342 1339 1335 1332 1329 1326 1325 1322 1318 1315 1312 1309 1307 1303 1300 1296 1293 1290 1287 1284 1281 1277 1274 1271 1268 1265 1261 1259 1259 1256 1253 1253 1253 1251 1251 1253 1254 1256 1258 1260 1261 1263 1265 1267 1269 1271 1273 1276 1279 1281 1284 1286 1289 1291 1293 1296 1298 1301 1303 1306 1308 1310 1313 1315 1318 1322 1326 1329 1333 1334 1334 1333
1347 1344 1340 1337 1334 1331 1328 1326 1324 1321 1317 1313 1310 1306 1303 1299 1295 1292 1289 1287 1284 1281 1277 1274 1271 1268 1264 1261 1259 1256 1255 1253 1250 1249 1249 1248 1248 1250 1252 1252 1254 1256 1258 1260 1262 1264 1266 1268 1270 1272 1275 1277 1280 1282 1284 1287 1289 1292 1294 1297 1299 1302 1304 1306 1308 1311 1313 1317 1320 1324 1328 1329 1329 1328
1345 1342 1338 1335 1332 1329 1326 1324 1321 1317 1313 1310 1308 1304 1299 1295 1291 1289 1286 1284 1281 1277 1274 1271 1268 1264 1259 1257 1256 1253 1250 1249 1247 1245 1244 1244 1244 1247 1249 1249 1251 1253 1255 1257 1258 1260 1262 1264 1266 1269 1271 1273 1276 1278 1280 1282 1285 1287 1290 1293 1296 1298 1300 1301 1304 1306 1309 1312 1316 1319 1323 1324 1325 1325
1343 1340 1336 1333 1330 1327 1323 1320 1318 1313 1309 1306 1304 1300 1295 1291 1288 1286 1283 1281 1277 1274 1271 1267 1264 1261 1256 1253 1252 1250 1247 1246 1244 1242 1241 1240 1241 1244 1245 1246 1247 1249 1251 1253 1254 1256 1259 1260 1262 1265 1267 1270 1272 1274 1276 1279 1281 1284 1287 1289 1292 1294 1296 1297 1299 1302 1305 1308 1311 1315 1318 1319 1321 1322
1341 1338 1335 1331 1329 1325 1321 1318 1314 1309 1305 1304 1300 1295 1290 1287 1285 1283 1281 1278 1274 1271 1267 1264 1261 1258 1254 1250 1248 1246 1244 1242 1239 1238 1238 1238 1239 1240 1241 1242 1244 1246 1248 1250 1251 1253 1255 1257 1259 1261 1264 1266 1269 1271 1273 1276 1278 1281 1283 1286 1288 1290 1292 1294 1296 1298 1301 1304 1307 1310 1313 1315 1317 1319
1341 1337 1333 1330 1327 1323 1319 1315 1310 1306 1304 1301 1297 1291 1286 1283 1281 1279 1277 1275 1272 1269 1266 1262 1258 1255 1252 1248 1245 1244 1242 1239 1237 1235 1235 1235 1236 1237 1239 1240 1242 1244 1246 1247 1249 1251 1252 1254 1255 1258 1261 1264 1266 1268 1270 1273 1275 1278 1280 1282 1285 1287 1289 1291 1292 1294 1297 1300 1303 1306 1309 1312 1314 1316
1340 1336 1333 1329 1326 1322 1318 1313 1309 1307 1304 1299 1293 1288 1284 1280 1278 1276 1273 1271 1270 1267 1264 1261 1256 1253 1250 1246 1242 1241 1240 1238 1235 1232 1231 1232 1233 1235 1237 1239 1240 1242 1243 1245 1246 1248 1249 1251 1253 1255 1258 1261 1263 1265 1268 1270 1272 1274 1277 1279 1281 1284 1286 1288 1289 1291 1294 1296 1299 1302 1305 1308 1311 1314
1339 1336 1332 1329 1325 1321 1316 1312 1311 1309 1304 1297 1291 1287 1282 1279 1276 1273 1271 1269 1267 1265 1262 1260 1256 1251 1247 1243 1238 1235 1234 1232 1230 1229 1228 1229 1231 1233 1235 1237 1239 1240 1241 1243 1244 1245 1246 1248 1250 1253 1256 1259 1261 1263 1265 1266 1268 1270 1273 1275 1278 1280 1283 1285 1286 1288 1290 1293 1295 1298 1301 1304 1307 1310
1339 1336 1332 1328 1325 1320 1316 1313 1312 1309 1303 1296 1290 1285 1281 1278 1275 1272 1270 1268 1266 1264 1262 1259 1256 1251 1247 1242 1237 1233 1230 1228 1226 1226 1226 1227 1229 1231 1233 1235 1236 1238 1239 1241 1242 1243 1244 1245 1248 1251 1254 1256 1258 1260 1261 1263 1265 1267 1269 1272 1274 1277 1280 1282 1284 1285 1287 1289 1292 1294 1297 1300 1303 1307
1339 1336 1332 1328 1324 1320 1316 1314 1311 1308 1302 1296 1290 1285 1282 1278 1274 1271 1270 1267 1265 1263 1261 1259 1256 1252 1248 1244 1239 1234 1229 1226 1225 1224 1225 1226 1228 1230 1232 1233 1235 1236 1238 1239 1241 1242 1242 1243 1246 1249 1251 1253 1255 1257 1259 1260 1262 1264 1266 1269 1271 1274 1277 1279 1281 1282 1284 1286 1288 1291 1294 1297 1300 1303
1339 1336 1332 1329 1325 1321 1318 1315 1311 1307 1302 1296 1290 1286 1282 1278 1274 1270 1267 1265 1263 1261 1259 1257 1255 1252 1249 1245 1240 1235 1230 1226 1225 1225 1226 1227 1228 1229 1231 1232 1234 1235 1237 1238 1239 1240 1241 1242 1244 1247 1249 1251 1253 1255 1256 1258 1259 1261 1263 1266 1268 1271 1274 1277 1278 1280 1281 1283 1285 1288 1290 1293 1296 1299
1338 1336 1332 1329 1326 1322 1319 1316 1311 1307 1303 1297 1292 1287 1283 1278 1275 1271 1267 1263 1261 1259 1257 1255 1253 1250 1246 1242 1240 1236 1232 1228 1226 1226 1226 1227 1227 1229 1230 1231 1233 1234 1235 1236 1237 1238 1239 1241 1242 1244 1247 1249 1250 1252 1253 1255 1256 1259 1261 1263 1266 1268 1271 1274 1276 1277 1279 1280 1283 1285 1287 1290 1292 1295
1337 1335 1332 1329 1326 1322 1319 1316 1312 1308 1304 1299 1294 1289 1285 1280 1277 1273 1269 1265 1261 1259 1256 1254 1251 1248 1245 1241 1239 1236 1232 1228 1226 1225 1225 1225 1226 1228 1229 1230 1231 1232 1233 1234 1235 1236 1238 1239 1241 1243 1244 1246 1247 1249 1250 1252 1253 1256 1259 1261 1264 1266 1269 1271 1273 1275 1276 1278 1280 1282 1284 1287 1289 1291
1336 1334 1331 1328 1325 1322 1319 1316 1313 1310 1306 1301 1297 1292 1288 1284 1281 1276 1271 1266 1263 1259 1256 1253 1251 1248 1245 1243 1240 1237 1233 1230 1228 1227 1226 1226 1226 1227 1228 1229 1230 1231 1231 1231 1232 1234 1236 1237 1239 1241 1242 1244 1245 1246 1247 1249 1251 1254 1257 1259 1262 1264 1266 1268 1270 1272 1274 1276 1277 1279 1281 1284 1286 1288
1336 1333 1330 1328 1325 1322 1320 1317 1314 1311 1307 1303 1299 1295 1292 1288 1284 1278 1272 1267 1262 1258 1255 1252 1249 1247 1244 1242 1240 1238 1236 1234 1232 1231 1229 1228 1228 1228 1229 1230 1229 1230 1230 1230 1231 1233 1234 1236 1237 1238 1240 1241 1242 1244 1245 1247 1249 1252 1255 1257 1260 1262 1264 1265 1267 1269 1271 1273 1275 1276 1279 1281 1283 1286
1335 1333 1330 1328 1326 1323 1321 1318 1315 1312 1308 1304 1301 1298 1295 1290 1285 1280 1274 1268 1263 1258 1254 1251 1248 1246 1244 1243 1241 1239 1238 1237 1235 1233 1232 1231 1230 1230 1231 1231 1230 1229 1230 1230 1231 1232 1233 1234 1235 1236 1238 1239 1240 1242 1243 1244 1247 1249 1252 1255 1257 1259 1261 1263 1265 1267 1269 1271 1273 1274 1276 1278 1281 1283
1335 1333 1331 1328 1326 1324 1321 1319 1316 1313 1309 1306 1302 1299 1296 1291 1286 1281 1275 1270 1265 1260 1255 1252 1249 1248 1247 1245 1244 1242 1241 1240 1239 1237 1236 1235 1234 1233 1232 1232 1231 1230 1230 1230 1230 1231 1231 1232 1234 1235 1236 1238 1239 1240 1241 1243 1245 1247 1249 1252 1255 1257 1258 1260 1262 1265 1266 1268 1270 1271 1273 1275 1277 1280
1335 1333 1331 1330 1327 1325 1322 1320 1317 1313 1310 1307 1304 1300 1296 1292 1288 1283 1278 1273 1269 1264 1261 1258 1256 1254 1252 1251 1249 1248 1246 1244 1242 1240 1239 1237 1236 1235 1234 1233 1232 1231 1231 1230 1231 1231 1231 1232 1232 1234 1235 1236 1237 1239 1240 1241 1243 1245 1247 1250 1252 1254 1256 1258 1260 1262 1264 1266 1267 1269 1271 1273 1275 1277
1335 1334 1332 1330 1328 1325 1323 1320 1317 1314 1311 1308 1305 1301 1297 1293 1289 1285 1281 1277 1273 1270 1268 1266 1264 1261 1259 1257 1254 1251 1249 1246 1243 1242 1241 1239 1238 1237 1235 1234 1233 1232 1232 1232 1232 1231 1232 1232 1232 1233 1234 1235 1237 1238 1239 1240 1242 1244 1246 1248 1250 1252 1254 1256 1258 1260 1262 1264 1265 1267 1269 1271 1273 1275
1336 1334 1333 1331 1328 1326 1323 1320 1318 1315 1312 1309 1305 1302 1298 1295 1292 1288 1285 1282 1278 1276 1274 1271 1269 1267 1263 1260 1256 1253 1250 1248 1245 1244 1242 1241 1239 1238 1237 1236 1234 1234 1234 1234 1233 1233 1233 1233 1233 1233 1234 1235 1236 1237 1238 1240 1241 1243 1244 1246 1248 1250 1251 1253 1256 1258 1260 1262 1264 1266 1267 1269 1272 1274
1336 1335 1333 1331 1329 1326 1324 1321 1319 1316 1312 1309 1306 1303 1300 1297 1294 1292 1289 1286 1283 1280 1277 1275 1272 1269 1265 1261 1258 1255 1252 1250 1248 1247 1245 1244 1242 1240 1239 1237 1236 1236 1236 1235 1235 1235 1235 1235 1234 1235 1235 1235 1235 1236 1238 1239 1241 1242 1243 1245 1247 1249 1251 1252 1254 1256 1259 1261 1262 1264 1265 1267 1270 1272
1337 1335 1333 1331 1328 1326 1323 1321 1318 1315 1313 1310 1307 1304 1301 1299 1296 1293 1290 1287 1285 1282 1280 1277 1274 1272 1268 1265 1261 1258 1255 1253 1252 1250 1248 1247 1245 1243 1241 1240 1239 1239 1238 1238 1237 1237 1237 1237 1237 1237 1237 1236 1236 1236 1237 1239 1241 1242 1243 1245 1247 1248 1250 1252 1253 1255 1257 1259 1261 1262 1264 1265 1268 1270
1337 1335 1333 1330 1327 1325 1322 1320 1318 1315 1313 1311 1308 1305 1303 1300 1297 1295 1292 1290 1288 1285 1282 1280 1277 1275 1272 1268 1265 1262 1259 1258 1256 1254 1252 1250 1247 1245 1244 1243 1242 1242 1241 1241 1240 1240 1240 1240 1239 1239 1238 1238 1237 1237 1238 1240 1241 1243 1244 1245 1247 1248 1249 1251 1253 1254 1256 1258 1260 1261 1263 1264 1266 1268
1337 1335 1333 1330 1327 1325 1323 1320 1318 1316 1314 1312 1309 1307 1304 1302 1299 1297 1294 1292 1291 1288 1286 1283 1281 1278 1275 1272 1269 1266 1263 1262 1260 1258 1255 1253 1250 1248 1247 1246 1245 1244 1244 1243 1243 1242 1242 1242 1242 1241 1240 1239 1239 1239 1240 1241 1243 1244 1245 1246 1247 1248 1249 1250 1252 1253 1255 1257 1259 1261 1262 1263 1264 1266
1337 1335 1333 1330 1328 1326 1324 1322 1320 1317 1315 1313 1311 1309 1306 1304 1301 1299 1296 1295 1293 1291 1288 1285 1283 1280 1278 1275 1272 1269 1266 1265 1262 1260 1258 1256 1254 1253 1251 1250 1249 1248 1247 1246 1245 1245 1245 1244 1244 1243 1242 1241 1241 1241 1243 1244 1244 1245 1245 1246 1246 1248 1249 1250 1251 1253 1254 1256 1258 1259 1261 1262 1263 1265
1337 1335 1333 1331 1329 1327 1325 1323 1321 1319 1317 1315 1313 1310 1308 1306 1304 1302 1300 1298 1296 1293 1290 1288 1285 1283 1280 1278 1275 1273 1270 1267 1265 1263 1261 1259 1257 1256 1254 1253 1252 1251 1250 1249 1249 1248 1247 1247 1246 1245 1244 1243 1243 1244 1245 1246 1246 1246 1246 1247 1247 1247 1248 1250 1251 1252 1253 1255 1257 1258 1260 1261 1263 1265
1338 1336 1334 1332 1330 1328 1327 1325 1323 1321 1319 1317 1315 1313 1310 1308 1307 1304 1302 1300 1297 1295 1292 1290 1288 1285 1283 1280 1277 1275 1273 1271 1268 1266 1264 1262 1260 1258 1257 1256 1255 1254 1253 1253 1252 1251 1250 1249 1248 1248 1247 1246 1246 1247 1247 1247 1247 1248 1248 1248 1248 1249 1249 1250 1251 1252 1253 1255 1256 1257 1259 1260 1262 1265
1338 1336 1335 1333 1331 1330 1328 1326 1324 1322 1320 1318 1316 1314 1312 1310 1308 1306 1304 1302 1299 1297 1294 1292 1290 1288 1286 1283 1280 1278 1276 1273 1271 1269 1267 1266 1264 1262 1261 1260 1259 1258 1257 1255 1254 1253 1252 1252 1251 1251 1250 1250 1250 1250 1250 1249 1249 1249 1249 1249 1249 1250 1250 1251 1251 1252 1253 1254 1255 1257 1258 1260 1262 1264
1339 1337 1335 1334 1332 1331 1329 1327 1325 1324 1322 1320 1318 1316 1314 1312 1310 1308 1305 1303 1301 1299 1297 1294 1292 1290 1288 1286 1284 1281 1279 1277 1275 1273 1272 1270 1268 1266 1265 1264 1262 1261 1259 1258 1256 1256 1255 1254 1254 1254 1253 1253 1253 1252 1252 1251 1251 1251 1250 1250 1250 1251 1251 1252 1252 1252 1253 1254 1255 1256 1258 1260 1261 1263
1339 1337 1336 1334 1333 1332 1330 1328 1327 1325 1323 1321 1320 1318 1316 1314 1311 1309 1307 1305 1303 1301 1299 1297 1294 1292 1290 1288 1286 1284 1281 1279 1278 1276 1275 1273 1271 1270 1268 1267 1265 1263 1262 1260 1259 1259 1258 1258 1258 1257 1257 1256 1255 1254 1254 1253 1252 1252 1252 1251 1251 1252 1252 1253 1253 1253 1253 1254 1255 1256 1257 1259 1261 1262
1339 1338 1336 1335 1334 1333 1331 1330 1328 1326 1325 1323 1321 1319 1318 1316 1314 1312 1310 1308 1306 1303 1301 1299 1297 1294 1292 1290 1288 1286 1284 1282 1280 1278 1277 1275 1274 1272 1270 1269 1267 1266 1265 1264 1263 1263 1262 1262 1261 1260 1258 1258 1257 1256 1255 1254 1254 1253 1253 1253 1253 1253 1253 1253 1254 1254 1254 1254 1255 1256 1257 1258 1260 1261
1339 1338 1337 1336 1334 1333 1332 1331 1329 1328 1326 1324 1323 1321 1319 1317 1315 1314 1312 1309 1307 1305 1303 1301 1299 1297 1295 1292 1290 1288 1287 1284 1283 1281 1279 1277 1276 1274 1273 1271 1270 1269 1269 1268 1267 1266 1265 1263 1262 1260 1259 1258 1257 1257 1257 1256 1256 1255 1254 1254 1254 1254 1254 1254 1254 1254 1255 1255 1256 1256 1257 1258 1259 1260
1338 1338 1337 1336 1335 1334 1333 1331 1330 1329 1327 1326 1324 1322 1321 1319 1317 1315 1313 1311 1309 1307 1305 1303 1301 1299 1297 1295 1293 1291 1289 1287 1285 1284 1282 1280 1278 1277 1275 1274 1273 1272 1270 1269 1268 1267 1266 1264 1263 1261 1260 1259 1258 1258 1257 1257 1257 1256 1256 1255 1255 1254 1255 1255 1255 1255 1256 1256 1256 1257 1258 1258 1258 1259
1338 1337 1337 1336 1335 1334 1333 1332 1331 1329 1328 1327 1325 1324 1322 1320 1318 1316 1314 1313 1311 1309 1307 1305 1303 1301 1299 1297 1295 1293 1291 1290 1288 1287 1285 1283 1281 1280 1278 1276 1274 1273 1271 1270 1268 1267 1266 1266 1264 1263 1262 1261 1260 1260 1259 1258 1258 1258 1257 1256 1256 1255 1255 1256 1256 1256 1257 1257 1257 1258 1258 1258 1258 1259
Wind_Speed
25 21 21 22 24 24 21 19 21 24 24 21 22 23 22 22 25 26 26 30 31 28 25 27 31 29 25 25 27 30 35 34 28 26 27 28 30 30 29 27 26 28 28 27 29 32 36 38 38 39 41 44 48 52 53 52 49 49 47 44 42 42 43 44 43 42 44 45 46 49 51 52 52 51
23 22 25 26 24 21 19 20 23 23 21 20 20 20 20 20 23 24 26 31 32 31 30 28 28 30 28 28 33 39 39 34 30 28 27 28 30 30 30 29 28 27 29 30 32 33 35 37 38 38 39 41 44 47 52 54 53 52 51 48 45 44 44 45 46 44 45 47 47 48 49 50 49 50
24 26 29 28 22 19 19 22 24 22 20 20 20 20 21 21 21 22 25 31 32 30 31 31 29 31 35 35 37 42 41 35 32 30 28 28 29 30 31 31 29 28 29 31 34 35 35 37 39 39 39 40 41 44 48 52 54 55 55 52 49 48 47 46 46 45 46 47 48 48 48 50 49 48
28 30 30 28 21 19 22 26 24 20 20 21 20 21 22 21 21 22 23 29 35 33 31 33 33 32 34 38 39 41 42 37 32 30 28 26 27 29 31 31 30 28 29 31 34 36 37 37 38 39 39 39 40 42 45 49 53 55 57 56 53 51 50 49 48 46 45 46 48 49 49 49 50 50
29 31 31 28 23 21 26 28 25 21 20 21 21 22 23 23 22 23 25 29 35 37 34 31 33 32 31 36 39 38 40 39 34 32 29 25 26 29 31 31 30 28 29 31 33 35 36 37 38 38 38 38 39 41 43 47 50 52 55 57 56 54 53 52 52 49 47 47 47 48 50 50 51 52
30 32 32 29 26 25 28 28 26 23 21 21 24 26 25 25 25 25 27 30 34 39 39 32 31 31 28 33 37 33 36 40 37 34 30 25 26 29 30 30 30 28 28 30 33 34 35 36 37 37 38 37 38 40 42 45 48 50 52 54 55 56 56 55 56 54 50 50 49 48 50 52 52 53
31 32 33 31 28 27 28 27 25 23 21 23 27 28 27 27 28 28 30 33 34 38 39 33 30 31 29 31 35 34 36 39 37 33 28 24 26 29 28 28 29 29 28 29 32 33 35 35 36 37 37 37 37 38 41 44 46 49 50 50 52 54 57 59 59 57 54 51 51 50 50 52 53 54
32 33 33 32 29 26 27 26 24 22 22 25 26 28 28 27 30 32 30 31 31 34 38 37 33 33 32 32 34 35 36 36 33 30 27 24 26 29 28 27 29 29 27 28 30 32 33 35 36 36 37 37 37 38 40 43 44 46 47 48 48 50 55 60 61 61 57 53 52 51 50 51 52 54
31 32 33 31 28 26 26 25 23 22 24 26 27 28 29 29 31 30 27 28 30 32 36 38 35 32 31 31 33 33 33 32 31 28 24 22 25 27 27 27 29 28 27 27 28 30 33 34 35 36 36 37 37 38 39 41 42 44 45 45 46 47 51 57 61 62 61 57 54 51 49 49 51 54
30 32 32 30 28 26 25 24 23 24 27 29 29 30 31 30 28 26 27 29 30 30 31 33 32 30 28 29 33 31 28 29 31 27 21 19 23 25 26 27 28 27 27 27 27 29 32 35 35 36 36 36 37 38 38 40 41 42 44 44 44 45 47 51 57 60 62 60 56 52 48 45 47 52
29 31 31 31 28 26 25 25 25 27 29 29 30 30 29 28 27 29 30 28 26 26 28 29 30 30 28 27 31 31 28 27 27 23 20 18 21 23 24 26 26 26 27 28 27 28 31 34 35 35 36 36 36 37 37 38 40 41 42 43 43 44 45 47 51 55 59 60 58 56 50 44 42 44
28 30 32 31 29 27 24 21 22 25 26 28 31 29 26 28 30 30 27 24 23 25 26 27 27 27 27 27 30 31 28 26 23 19 19 19 20 22 22 24 25 25 27 28 28 28 30 33 35 35 36 36 36 36 37 38 39 41 42 42 43 43 44 45 47 50 53 55 56 56 50 43 38 36
28 30 32 31 29 27 22 17 19 24 25 27 29 27 28 31 29 26 23 22 23 23 24 25 24 25 28 28 28 30 28 26 23 19 18 18 19 20 20 22 23 24 25 27 28 29 30 33 35 35 36 37 36 36 37 38 39 40 41 42 42 42 42 44 45 46 47 49 51 51 47 41 35 29
28 30 31 32 30 28 23 20 22 28 27 22 24 29 33 30 24 21 21 21 21 22 23 23 23 26 30 29 28 30 28 24 23 20 16 14 16 19 20 20 22 22 23 26 28 29 30 32 34 35 36 36 36 36 38 39 40 40 41 41 41 40 41 41 41 42 42 43 46 47 45 42 35 27
29 30 32 33 32 29 27 25 28 33 28 21 28 38 34 22 16 18 20 21 22 22 23 24 24 26 29 29 28 29 27 24 22 19 15 11 12 19 22 21 21 23 24 26 28 28 29 31 33 34 35 35 35 37 38 38 39 40 40 40 39 38 39 39 39 39 39 40 43 44 43 41 36 29
30 31 32 34 32 30 29 28 33 38 33 30 39 40 26 13 11 13 15 18 20 21 22 24 24 24 26 29 28 26 25 24 20 15 12 9 11 16 21 21 21 22 23 25 27 27 28 30 32 33 33 33 35 36 36 37 38 39 39 39 38 37 36 36 36 36 37 38 41 43 43 40 36 32
30 31 33 34 32 31 31 32 37 40 37 39 41 32 20 13 11 10 11 13 15 16 18 22 22 21 23 26 26 24 23 23 20 16 12 10 9 12 17 20 20 18 18 21 25 25 27 29 31 32 31 31 33 35 35 35 36 37 37 37 35 34 34 33 33 34 35 37 39 42 43 41 35 32
29 30 32 33 33 32 32 34 38 37 37 41 37 28 23 20 15 12 12 9 9 10 13 17 20 18 18 22 24 23 20 18 19 17 11 10 10 11 14 17 17 15 14 16 20 24 27 29 31 31 30 30 31 33 34 34 34 35 35 35 34 32 31 31 31 31 33 35 38 40 43 42 37 32
28 29 30 32 32 32 32 35 35 33 35 39 35 29 27 24 19 16 13 9 9 9 10 13 16 16 16 19 21 19 15 13 15 15 9 8 11 14 13 14 16 15 13 13 15 20 26 29 30 30 29 28 28 29 30 32 33 34 34 34 33 31 30 29 29 30 32 33 36 40 42 42 40 35
28 28 29 30 31 31 32 33 32 31 33 36 35 32 29 26 21 17 13 9 8 8 9 11 13 16 16 16 16 14 11 9 11 10 6 7 13 16 13 14 16 15 13 13 13 17 22 27 30 30 28 27 27 26 27 29 30 31 32 32 32 31 30 29 27 28 30 32 34 38 41 42 42 39
27 27 28 29 29 30 31 31 29 30 32 35 36 35 31 28 24 19 14 9 5 5 7 9 12 15 15 15 12 7 5 5 5 5 6 9 13 15 13 14 16 15 13 13 13 15 20 24 28 28 26 27 27 26 26 26 26 28 29 29 29 30 30 28 26 27 29 30 32 35 39 42 42 41
26 26 26 26 27 27 28 28 28 29 32 34 36 35 33 31 29 25 19 13 9 6 6 6 8 12 14 17 15 10 6 3 2 5 7 9 11 14 14 13 14 14 14 14 15 17 19 22 25 27 25 25 26 27 26 26 25 25 26 26 26 28 30 28 25 26 28 29 31 33 37 40 40 40
25 25 25 25 25 25 25 26 27 28 30 33 35 35 34 33 32 28 23 19 15 11 8 6 6 10 13 17 19 19 17 15 13 13 13 12 11 12 13 13 13 12 13 15 17 19 20 20 23 26 25 23 25 26 26 27 26 25 24 24 25 27 30 30 26 24 25 27 30 32 35 38 38 38
25 25 25 25 24 24 24 25 26 27 29 32 34 35 35 34 32 29 25 22 18 15 12 11 10 12 14 15 17 20 23 23 22 20 20 19 17 15 13 13 13 11 11 14 17 19 20 20 21 26 26 23 23 25 26 26 27 27 25 25 24 25 27 30 29 26 23 24 27 30 33 36 37 36
24 24 25 25 24 23 23 24 25 26 28 30 32 33 34 33 32 30 28 25 21 18 17 16 15 15 15 15 17 20 24 26 25 24 23 22 21 18 16 14 13 10 10 14 16 17 19 19 20 24 26 24 21 23 25 26 26 28 27 26 25 24 25 28 30 29 25 22 25 28 31 33 35 36
23 23 24 24 23 22 22 22 23 24 25 28 30 31 31 31 31 32 33 32 30 26 23 22 21 20 19 19 20 21 22 24 25 26 26 24 23 22 19 16 14 10 7 10 14 15 16 17 18 22 25 24 21 19 22 25 27 27 28 28 27 25 24 26 28 30 27 24 24 27 29 31 34 35
22 23 23 23 21 20 20 20 21 22 24 26 28 29 29 30 32 34 35 36 36 34 31 28 27 26 25 24 25 25 23 21 22 25 26 26 25 24 21 19 16 13 9 8 12 14 14 15 17 20 23 23 21 18 19 23 26 27 28 29 29 27 25 26 28 29 27 24 23 27 30 32 33 34
21 22 22 20 19 19 18 19 19 20 22 24 26 27 29 30 32 35 36 37 38 38 37 34 32 30 29 28 28 27 24 21 19 20 21 23 23 22 21 19 17 16 13 11 12 13 13 13 16 19 21 21 20 19 19 20 23 26 28 29 28 27 26 26 27 28 25 22 22 25 29 33 34 35
20 20 19 17 16 17 16 17 18 19 21 22 24 26 28 30 32 35 37 38 39 40 40 38 35 31 29 27 26 25 24 22 19 17 15 17 19 20 19 18 16 16 16 15 14 13 13 12 13 16 18 18 18 17 17 18 20 24 27 28 28 26 26 26 28 27 24 20 19 22 27 31 33 34
19 18 16 15 15 15 16 17 18 19 20 21 23 25 27 30 32 34 36 38 39 40 39 38 36 34 30 27 26 26 25 23 22 19 17 16 15 16 17 17 17 17 17 16 16 15 14 13 11 12 15 17 17 15 14 16 18 21 25 28 27 26 25 26 27 27 24 20 17 19 23 27 30 31
17 16 14 13 13 14 14 16 17 18 20 21 23 25 27 29 31 33 34 35 37 38 37 37 36 35 33 32 30 29 28 26 25 24 22 21 19 16 14 16 19 19 17 15 15 16 16 15 13 12 11 12 15 15 15 15 17 20 24 26 26 25 25 26 26 25 23 21 17 17 22 27 28 29
16 14 13 12 12 12 13 14 16 18 20 22 24 26 27 28 29 30 31 32 33 35 35 35 35 35 35 35 34 32 31 30 28 26 24 22 22 19 16 17 20 20 18 16 16 16 17 18 17 15 12 9 10 13 14 14 16 19 22 24 24 23 22 24 25 24 22 21 18 17 20 26 29 29
14 13 13 13 13 15 16 17 18 20 22 23 25 26 28 28 29 30 31 32 33 33 33 34 35 35 35 36 36 34 33 31 30 28 26 23 22 21 21 22 24 24 22 21 19 17 16 17 18 17 15 12 11 11 12 14 15 17 19 21 22 21 19 20 23 24 21 20 19 17 17 22 27 30
13 13 14 15 17 18 19 20 22 23 24 25 26 28 29 29 29 30 31 32 32 32 32 33 34 34 35 35 36 36 35 33 31 29 28 27 25 24 24 24 25 25 24 24 23 20 17 15 14 16 17 17 17 14 13 13 13 13 14 15 17 18 18 18 21 22 21 20 19 18 17 18 21 27
13 14 15 16 18 20 21 22 24 25 25 26 27 28 29 30 30 31 31 32 31 31 31 32 32 33 34 34 35 35 35 34 32 30 29 29 30 29 28 27 26 25 24 24 23 22 20 16 12 12 15 17 19 19 17 14 12 10 11 11 11 13 16 17 19 21 21 21 21 20 19 18 18 22
13 15 16 17 19 20 21 23 24 25 26 27 28 28 30 30 31 32 32 32 31 31 31 32 32 33 33 33 34 34 34 34 33 32 32 31 31 31 30 29 28 27 25 24 23 22 21 19 16 14 14 16 18 19 17 15 13 10 10 10 10 10 12 15 18 19 20 22 23 22 22 20 18 18
13 15 16 17 19 20 21 22 23 23 25 26 26 27 29 29 30 30 30 30 30 31 31 32 32 32 33 33 32 33 33 33 33 33 33 33 32 31 31 30 29 28 26 25 22 21 21 20 19 18 17 17 18 17 14 13 13 10 8 9 9 9 9 11 14 17 18 19 21 22 21 20 18 17
13 15 16 17 18 19 20 21 21 22 23 24 24 25 26 26 27 27 27 28 29 30 30 31 31 32 32 33 33 32 32 32 32 32 33 33 33 33 32 30 29 28 26 24 22 20 20 20 20 21 20 19 19 17 14 14 14 12 10 9 8 8 8 7 8 13 16 17 17 18 19 19 16 15
12 14 15 16 17 18 19 19 20 21 22 23 23 24 24 25 25 26 26 27 28 28 29 30 30 31 31 32 32 33 32 32 32 32 32 32 32 32 31 30 29 27 26 24 23 21 20 20 20 21 21 19 17 16 14 14 14 14 12 11 9 7 7 8 6 7 12 15 16 16 16 16 15 15
11 13 14 15 16 17 18 19 20 21 22 22 23 24 24 24 25 25 26 27 26 27 27 28 28 29 29 30 31 31 32 32 32 32 31 31 30 30 30 30 29 28 26 26 25 24 23 22 21 20 19 17 14 13 12 12 11 11 11 10 9 7 5 5 6 5 5 9 14 16 15 14 15 17
10 12 13 14 15 16 17 18 19 20 21 22 23 23 24 24 25 26 26 26 26 26 26 26 27 28 28 29 29 30 30 31 31 31 30 30 29 29 28 27 28 28 28 28 27 26 25 22 19 16 14 12 11 11 12 12 10 9 9 9 8 7 6 4 4 5 4 4 9 14 15 15 15 18
9 10 11 13 14 15 16 17 18 19 20 21 22 23 24 24 25 25 26 26 26 26 26 26 27 27 27 28 28 29 29 29 30 30 30 29 29 28 28 27 27 27 27 27 26 24 22 19 15 13 11 10 10 10 12 13 12 9 8 6 5 6 7 5 2 4 5 5 5 9 13 15 15 17
8 9 10 11 12 14 15 16 17 18 19 20 21 22 23 24 25 26 26 27 27 28 28 28 27 27 27 27 27 28 28 28 28 29 29 29 29 28 28 28 27 26 24 23 22 21 19 18 16 14 11 10 10 10 10 11 12 11 8 6 5 5 6 6 3 2 5 7 6 6 8 11 13 16
6 7 8 9 11 12 13 14 15 16 18 19 20 21 23 24 25 26 27 28 28 29 29 29 29 28 28 28 27 27 28 28 28 28 28 28 28 27 27 26 26 25 23 21 19 18 18 18 17 15 14 13 13 12 10 9 10 10 9 7 6 5 5 6 4 2 4 7 7 6 5 6 8 11
4 5 7 8 9 10 11 12 14 15 16 18 19 20 22 23 24 25 26 27 28 28 29 29 30 29 29 29 28 28 28 27 27 27 27 26 26 26 26 25 25 24 24 23 21 20 18 17 15 14 15 15 13 12 11 9 8 8 8 7 7 6 6 6 5 3 4 6 7 5 4 4 5 7
Wind_Direction
336 318 308 309 309 307 303 299 300 302 301 295 294 297 295 292 293 296 298 297 296 298 299 297 298 300 298 295 294 297 298 298 296 289 278 266 252 239 234 236 235 231 229 228 226 226 224 224 227 230 231 231 229 225 222 221 221 222 223 223 224 223 222 221 222 223 225 226 225 225 226 226 229 233
330 314 315 320 317 308 300 300 304 304 300 295 293 295 294 291 290 292 295 293 291 295 296 293 294 297 296 294 297 301 301 299 298 292 283 270 256 243 236 235 234 233 231 226 222 221 222 222 224 227 230 231 230 228 225 224 223 223 224 224 224 224 224 222 222 224 225 226 225 224 224 224 227 229
328 319 325 329 321 304 300 306 307 303 298 295 293 292 293 294 291 289 289 288 288 292 294 293 293 294 296 298 300 302 301 299 298 294 285 273 259 245 238 233 232 234 232 228 224 219 219 221 222 225 228 230 230 228 227 226 225 225 226 226 225 225 226 224 223 225 226 226 225 225 225 224 225 226
331 328 333 334 321 302 305 311 309 302 298 296 294 293 295 294 291 288 283 283 287 290 291 293 294 295 297 299 300 301 302 300 297 295 289 276 261 247 238 232 232 233 232 229 226 221 219 219 220 223 226 229 230 228 227 226 226 226 228 228 227 226 226 225 226 227 227 227 226 226 227 227 226 225
335 335 339 336 323 308 310 314 311 305 300 298 298 300 300 294 290 289 284 281 286 293 295 293 293 295 295 297 298 299 300 300 299 297 291 277 259 245 237 233 232 231 231 230 226 223 221 219 220 222 224 227 229 229 227 226 226 226 227 228 229 228 227 227 228 228 229 228 228 228 229 229 228 227
340 341 341 338 327 317 316 316 315 311 307 308 311 312 306 297 296 298 293 287 287 294 297 295 293 294 292 292 295 294 295 299 300 296 287 272 254 241 235 235 231 228 229 229 226 223 222 221 221 221 223 225 227 229 228 226 225 226 227 228 229 229 229 229 229 229 230 230 230 231 231 231 230 229
343 344 342 338 330 323 320 319 319 318 317 320 320 317 312 305 305 309 305 299 294 294 296 296 295 295 292 290 291 291 294 298 299 295 284 266 247 237 233 232 229 225 225 225 224 223 221 221 221 221 222 224 225 227 228 227 226 226 227 228 228 229 230 230 230 230 230 231 230 231 233 233 232 230
345 345 342 338 333 327 323 323 324 324 324 325 323 320 317 311 309 310 307 300 297 293 292 293 293 292 290 288 289 292 296 299 299 296 284 261 240 232 229 229 227 223 220 220 221 221 221 221 221 221 222 223 224 226 227 228 228 227 228 228 227 228 229 230 231 231 231 231 230 231 235 236 235 233
346 345 343 340 336 330 327 328 328 328 328 327 324 321 317 313 311 308 301 296 295 291 288 289 290 289 288 287 288 291 294 297 301 298 283 258 239 231 226 225 225 222 218 216 217 219 220 220 221 221 221 222 223 225 227 229 229 228 228 228 227 227 228 230 232 232 232 232 231 232 235 239 241 239
346 345 345 343 339 334 332 333 331 329 330 327 324 321 318 315 312 305 299 298 295 288 284 287 289 289 288 287 289 291 291 292 296 295 283 256 237 230 224 221 223 223 218 214 214 216 218 219 220 221 221 222 224 225 227 228 228 228 228 228 228 229 229 230 232 233 233 233 231 231 234 241 246 245
346 347 348 346 342 339 339 337 332 331 331 328 324 320 317 314 309 303 300 297 292 287 286 286 287 288 288 287 288 292 295 295 294 295 289 261 231 224 224 220 221 221 218 215 215 216 217 218 219 220 221 222 224 225 226 226 226 226 227 227 228 229 230 231 232 232 233 233 233 232 234 241 248 249
347 349 351 349 344 343 345 341 336 337 336 329 322 318 314 310 307 304 301 296 292 290 288 287 287 289 289 288 289 295 302 303 298 298 298 275 237 221 222 221 219 219 217 217 218 218 218 217 217 219 221 222 224 225 224 224 224 224 225 227 227 228 230 232 232 233 233 234 234 234 233 238 246 247
350 352 353 351 346 345 349 348 345 346 341 328 320 317 314 312 309 305 300 297 297 294 291 291 290 290 290 290 294 300 303 303 298 297 297 280 245 224 223 222 218 215 217 219 221 220 219 217 217 218 220 221 222 222 221 221 222 222 224 225 227 228 229 231 233 234 234 235 234 232 230 233 240 241
352 355 354 352 348 346 349 354 354 351 345 331 320 319 319 315 310 309 306 303 301 298 296 294 292 292 293 294 299 302 300 302 304 303 298 280 246 230 231 227 218 213 215 219 220 220 218 216 217 219 220 221 221 220 218 218 220 221 222 224 226 227 229 231 234 234 234 234 233 230 227 227 234 236
354 356 356 353 348 348 354 357 356 354 351 338 326 325 323 314 305 312 315 311 304 300 297 296 294 295 297 300 304 302 300 305 308 304 296 280 245 232 230 223 216 212 212 216 219 218 217 215 216 219 221 222 220 218 217 218 219 220 221 223 224 227 230 232 234 234 233 232 230 226 223 224 227 228
354 355 356 353 348 351 358 359 358 358 351 335 330 329 327 317 306 309 312 308 299 294 294 296 297 299 302 306 306 303 304 308 308 300 286 264 238 231 225 216 213 212 210 215 219 219 216 215 215 218 221 221 218 217 217 218 219 219 220 222 224 226 230 232 234 234 231 230 229 224 220 221 223 220
355 355 355 352 350 354 360 1 1 358 345 333 333 337 341 345 336 320 309 297 283 284 292 297 301 309 311 309 307 305 305 306 305 298 277 241 224 227 225 221 218 214 212 216 220 221 218 214 214 217 218 218 216 216 217 218 218 218 219 222 224 227 230 233 233 233 230 227 226 224 219 219 221 217
357 356 353 351 351 356 3 4 1 353 340 334 340 350 357 359 356 342 329 307 284 291 303 303 311 325 326 316 314 309 301 300 303 294 260 214 205 215 225 230 228 221 217 217 219 222 219 213 213 215 215 216 216 217 218 219 218 218 219 221 224 226 229 231 231 230 229 226 223 222 219 216 219 217
359 356 353 351 352 358 6 4 357 348 340 340 349 360 3 3 3 357 349 332 313 322 329 323 329 346 348 335 326 315 302 302 303 289 254 209 207 209 216 232 231 224 221 217 218 223 219 212 210 212 212 214 216 217 218 218 216 216 217 219 222 225 226 227 228 227 226 225 221 219 218 215 214 214
0 358 354 352 353 1 7 0 353 349 345 348 357 4 5 7 8 6 1 348 330 331 339 342 352 4 9 359 342 320 307 311 304 283 252 212 208 208 212 224 225 221 221 221 220 223 220 212 207 208 209 211 212 211 210 210 211 212 215 217 221 223 222 222 224 224 222 224 223 219 216 216 213 211
1 360 356 352 354 4 6 357 354 355 353 357 5 6 6 10 11 9 7 0 354 348 342 347 0 12 22 20 4 334 304 309 298 256 219 206 209 211 212 216 218 219 222 224 222 222 220 212 205 204 206 207 208 207 205 204 205 208 211 216 220 220 218 218 220 221 220 222 224 220 216 215 215 214
1 1 358 354 358 7 6 360 2 3 360 5 11 9 9 13 13 10 7 5 11 12 351 343 357 11 28 36 38 46 68 88 143 175 176 182 198 206 206 210 215 215 216 221 218 215 216 211 203 201 201 203 206 207 205 203 202 204 208 213 217 217 214 215 217 218 218 220 221 221 218 215 216 218
359 1 1 358 1 9 9 4 8 9 7 11 15 13 13 15 15 14 13 12 14 12 359 345 351 9 24 36 46 57 72 90 104 114 119 125 144 168 183 196 201 196 199 209 211 210 212 210 203 201 199 200 205 206 205 204 202 203 205 209 213 214 213 214 215 215 218 219 218 219 218 215 216 219
357 360 3 0 2 9 11 8 10 12 14 17 18 18 18 18 17 20 23 25 24 22 22 21 23 27 30 36 46 56 68 81 91 97 102 104 107 116 138 164 173 170 181 198 204 208 211 209 205 203 203 204 207 208 207 208 206 205 206 208 211 213 213 214 215 214 217 220 218 217 216 215 215 218
355 359 2 1 3 9 10 9 10 12 16 20 22 22 23 22 22 25 30 34 35 36 37 38 39 41 42 44 48 54 62 71 80 88 94 96 97 99 111 132 145 151 175 195 200 205 210 211 207 205 205 208 212 212 209 210 211 210 209 210 211 213 214 215 214 213 216 221 221 217 215 213 213 216
356 1 2 0 3 7 8 9 10 12 16 21 25 26 24 23 25 28 32 35 37 38 40 41 42 43 43 43 45 49 55 63 70 77 82 86 88 88 91 102 116 123 152 189 196 198 206 212 211 207 205 205 210 211 208 208 210 211 211 211 211 213 215 216 214 212 214 220 223 220 214 211 212 213
359 3 2 360 1 4 6 7 9 13 17 21 25 26 24 24 26 29 33 35 37 38 38 38 38 38 38 39 39 41 45 53 61 67 73 78 81 83 83 87 94 101 120 170 188 191 198 208 211 210 207 206 206 206 206 208 209 209 208 209 209 210 212 214 213 211 213 220 226 222 216 211 210 210
3 4 1 357 357 360 5 8 10 14 20 23 25 25 24 25 26 29 32 35 38 39 38 37 36 35 35 36 37 36 38 46 53 59 66 72 76 80 83 84 89 98 113 141 164 176 185 196 206 208 208 209 210 209 208 209 210 209 206 205 205 206 206 208 209 208 210 219 227 224 218 215 211 209
5 3 357 355 355 358 3 8 11 16 22 25 26 26 26 26 27 30 32 35 39 41 41 41 40 38 37 38 40 39 39 44 51 56 64 72 74 76 80 84 89 93 101 115 131 147 160 173 190 200 205 209 212 214 215 214 212 209 206 202 201 201 201 203 204 205 209 217 225 225 220 218 217 213
7 1 354 355 359 2 6 11 14 19 24 27 28 29 29 29 30 31 32 34 38 41 43 44 44 43 43 43 45 45 42 43 46 47 50 58 62 63 70 78 82 83 85 94 108 119 129 140 156 177 195 205 209 212 216 216 213 209 205 201 198 196 197 199 201 204 209 214 220 223 220 218 219 219
8 0 356 1 7 12 18 20 22 24 26 28 31 32 33 33 34 35 35 35 38 40 41 43 44 45 45 45 45 46 44 43 43 42 42 45 47 49 59 70 73 73 74 79 88 97 104 109 116 130 158 187 202 208 212 214 213 208 202 200 199 197 195 197 199 202 207 212 217 220 219 216 216 217
7 359 359 5 10 17 23 26 28 28 28 30 33 34 34 35 36 37 38 37 37 38 39 40 41 43 44 46 45 45 45 44 43 42 42 43 45 48 55 61 61 62 66 70 73 78 85 90 91 93 105 137 172 190 199 203 208 206 200 197 199 201 200 198 199 200 202 207 212 217 217 216 214 211
1 354 358 5 11 17 22 24 28 30 31 32 33 34 34 34 34 35 36 36 35 36 36 37 38 39 42 45 46 47 47 45 43 42 42 44 47 51 54 55 53 52 53 57 60 64 71 78 80 78 82 98 122 151 174 184 190 196 197 196 199 202 202 201 201 200 198 202 208 212 214 215 214 211
355 355 4 11 17 22 25 26 28 30 31 32 33 34 34 33 33 34 35 35 34 34 34 35 36 36 38 41 44 46 48 47 46 45 44 44 46 48 49 50 50 49 48 50 52 55 59 68 79 82 83 88 95 108 133 151 161 174 185 190 196 200 200 201 203 201 198 201 207 210 210 211 211 210
357 5 15 20 24 28 30 32 33 33 33 35 35 36 36 34 34 34 34 34 33 33 34 34 34 35 37 38 40 42 44 46 47 47 46 46 46 47 46 46 46 45 45 46 46 48 49 54 66 77 81 87 88 88 94 108 122 140 159 168 181 194 199 198 199 200 200 203 208 210 211 211 208 206
5 17 24 27 31 35 37 38 39 38 37 37 36 37 37 36 35 35 35 33 33 33 33 33 32 33 34 36 38 39 40 41 42 44 46 46 46 47 48 48 47 46 44 42 41 42 43 45 50 57 63 71 76 73 71 77 88 108 133 144 155 175 190 193 193 196 199 203 207 210 212 215 212 205
16 27 32 35 37 39 39 40 41 39 39 38 36 36 36 35 35 36 35 34 33 34 34 34 32 31 31 32 35 37 38 38 38 39 41 42 43 44 45 46 46 46 45 43 41 39 39 41 45 49 51 54 58 60 61 64 67 76 98 119 132 147 165 183 193 195 197 201 206 209 213 217 216 208
27 34 38 39 41 40 39 39 39 38 38 38 36 36 35 34 34 35 34 33 33 33 33 34 33 33 32 31 31 33 36 37 37 37 37 38 39 40 40 41 43 44 45 45 44 42 41 42 44 45 46 46 45 43 46 55 59 59 67 79 97 121 133 147 181 196 198 201 204 207 210 214 215 210
34 38 40 39 40 39 38 37 37 36 36 36 35 35 34 33 32 32 33 32 31 31 31 32 32 32 32 32 31 31 33 34 35 36 35 34 35 36 36 37 38 39 41 43 44 43 43 43 42 40 39 39 38 33 32 41 49 53 58 61 66 88 114 121 138 180 198 203 205 207 208 209 210 209
38 40 40 39 39 38 37 37 37 37 36 35 35 35 34 32 31 31 31 30 30 30 31 31 30 30 31 31 31 31 32 33 34 34 34 33 32 32 33 33 34 34 35 38 39 38 37 35 33 31 30 31 31 29 30 35 43 50 56 60 62 66 81 108 120 135 179 202 204 205 206 204 200 199
39 40 41 41 41 40 40 40 39 39 38 37 36 36 36 34 32 31 30 29 29 29 30 31 30 29 29 30 29 29 29 30 31 31 32 32 31 30 30 30 31 31 32 33 33 33 32 29 24 21 20 21 22 28 35 38 42 48 53 58 66 66 54 60 116 129 128 172 199 204 205 205 201 196
41 42 44 46 46 45 44 44 43 41 40 40 39 38 37 37 36 35 33 31 31 31 32 32 32 30 29 29 28 28 28 28 27 27 28 28 29 28 27 27 27 27 28 29 30 30 28 25 21 17 15 15 19 29 36 36 37 45 51 52 64 73 59 47 81 145 136 132 170 197 200 202 203 202
47 47 50 52 51 50 49 47 46 45 43 42 41 40 39 39 38 37 36 34 33 33 33 33 33 32 30 29 28 27 27 27 26 25 25 24 25 26 26 25 24 23 23 25 27 27 25 21 18 16 13 13 20 26 31 32 35 42 49 52 63 78 74 65 71 150 146 135 143 176 194 199 203 208
59 57 59 58 57 55 54 50 49 48 46 45 43 41 41 40 39 38 37 35 34 34 34 34 33 32 32 31 30 28 28 27 26 24 24 23 22 23 23 23 21 19 18 18 19 22 24 22 19 17 15 16 19 21 18 20 29 36 44 56 75 89 90 83 84 125 149 142 148 170 193 201 205 210
77 72 69 65 63 61 58 54 51 49 47 45 44 42 41 41 39 38 37 35 34 34 34 33 33 32 30 30 30 29 28 28 26 25 24 23 22 21 21 20 19 17 15 14 12 13 16 18 21 22 20 19 21 23 20 15 14 21 34 54 76 95 105 101 96 111 148 152 157 172 188 194 204 209